[[{"header":{"parameterUnit":"m.s-1","parameterCategory":1,"la1":30.2991,"la2":30.254,"lo1":-89.0895,"lo2":-89.0444,"dy":0.0017,"dx":0.0017,"nx":28,"ny":28,"refTime":"2023-10-06T09:00:00:Z","depth":0,"parameterNumber":2,"parameterNumberName":"U-component_of_WINDS"},"data":[0,0,0,0,0,0,0,0,0,0,0,0,0,0,0,0,0,0,0,0,0,0,0,0,0,0,0,0,0,0,0,0,0,0,0,0,0,0,0,0,0,0,0,0,0,0,0,0,0,0,0,0,0,0,0,0,0,0,-2.1455,-2.1455,0,-2.1448,-2.1448,-2.1448,-2.1438,-2.1438,-2.1437,-2.1437,-2.1432,-2.1432,-2.1432,0,0,0,0,0,0,0,0,0,0,0,0,0,-2.146,-2.146,-2.1455,-2.1455,-2.1455,-2.1448,-2.1448,-2.1448,-2.1438,-2.1438,-2.1437,-2.1437,-2.1432,-2.1432,-2.1432,0,0,0,0,0,0,0,0,0,0,0,0,0,-2.1456,-2.146,-2.1455,-2.1449,-2.1448,-2.1448,-2.1448,-2.1448,-2.1438,-2.1438,-2.1437,-2.1437,-2.1432,-2.1432,-2.1432,-2.1438,0,0,-2.1432,-2.1432,0,0,0,0,0,0,0,0,-2.1456,-2.1456,-2.145,-2.1449,-2.1449,-2.1443,-2.1448,-2.1445,-2.1438,-2.1442,-2.1437,-2.1437,-2.1436,-2.1436,-2.1435,-2.1437,-2.1437,-2.1432,-2.1432,-2.1432,-2.1432,0,0,0,0,0,0,0,-2.1457,-2.1456,-2.1452,-2.145,-2.1449,-2.1447,-2.1446,-2.1447,-2.1441,-2.1441,-2.1441,-2.144,-2.1436,-2.1435,-2.1435,-2.1437,-2.1432,-2.1432,-2.1432,-2.1432,-2.1443,-2.1443,0,0,0,0,0,0,-2.1458,-2.1457,-2.1452,-2.1452,-2.1452,-2.1447,-2.1446,-2.1445,-2.1441,-2.144,-2.144,-2.144,-2.1435,-2.1435,-2.1435,-2.1441,-2.1432,-2.1432,-2.1432,-2.1443,-2.1443,-2.1443,0,0,0,0,0,0,-2.1458,-2.1457,-2.1453,-2.1454,-2.1453,-2.1447,-2.1447,-2.1445,-2.1445,-2.144,-2.1438,-2.1441,-2.1435,-2.1435,-2.1437,-2.144,-2.1432,-2.1432,-2.1442,-2.1443,-2.1443,-2.1453,0,0,0,0,0,0,-2.1458,-2.1458,-2.146,-2.1454,-2.1453,-2.1455,-2.1447,-2.1445,-2.1445,-2.1444,-2.144,-2.1439,-2.1435,-2.1437,-2.1437,-2.144,-2.1432,-2.1442,-2.1443,-2.1443,-2.1452,-2.1453,-2.1455,0,0,0,0,0,-2.1458,-2.1463,-2.146,-2.1459,-2.1456,-2.1455,-2.1454,-2.1449,-2.1445,-2.1447,-2.1443,-2.1439,-2.144,-2.1437,-2.1437,-2.144,-2.1442,-2.1442,-2.1443,-2.1452,-2.1453,-2.1454,0,0,0,0,0,0,-2.147,-2.1462,-2.1459,-2.1462,-2.1459,-2.1453,-2.1456,-2.1451,-2.145,-2.1449,-2.1443,-2.1442,-2.1445,-2.1443,-2.144,-2.1445,-2.144,-2.1441,-2.1447,-2.1448,-2.1449,-2.145,-2.1432,0,0,0,0,0,-2.1473,-2.1473,-2.1466,-2.147,-2.1468,-2.1462,-2.1462,-2.1458,-2.1455,-2.1454,-2.145,-2.1448,-2.1448,-2.1448,-2.1447,-2.1452,-2.145,-2.1454,-2.1455,-2.1456,-2.1457,-2.1458,-2.146,-2.1445,-2.1445,-2.1445,0,0,-2.1479,-2.1475,-2.1475,-2.1472,-2.1469,-2.1469,-2.1461,-2.1462,-2.1462,-2.1454,-2.1455,-2.1453,-2.145,-2.1453,-2.1454,-2.1451,-2.146,-2.1457,-2.1458,-2.1458,-2.1459,-2.146,-2.1462,-2.1446,-2.1445,-2.1445,0,0,-2.1491,-2.1487,-2.149,-2.1487,-2.1482,-2.1478,-2.1478,-2.1473,-2.1471,-2.1472,-2.1466,-2.1466,-2.1465,-2.1463,-2.1462,-2.1471,-2.1467,-2.1471,-2.1478,-2.1479,-2.148,-2.1481,-2.1484,-2.1485,-2.1472,-2.1472,-2.1472,0,-2.15,-2.1499,-2.1492,-2.1492,-2.1491,-2.1482,-2.1484,-2.1482,-2.1478,-2.1477,-2.1474,-2.1472,-2.147,-2.1472,-2.1474,-2.1474,-2.1474,-2.1472,-2.1481,-2.1482,-2.1482,-2.1485,-2.1486,-2.1472,-2.1472,-2.1472,-2.1472,0,-2.1509,-2.1509,-2.1511,-2.1506,-2.1505,-2.1506,-2.1499,-2.1499,-2.1495,-2.1491,-2.1491,-2.1488,-2.1486,-2.1486,-2.1482,-2.1487,-2.1486,-2.1482,-2.1476,-2.1484,-2.1487,-2.1488,-2.1473,-2.1473,-2.1473,-2.1473,0,0,-2.153,-2.1519,-2.152,-2.1518,-2.1511,-2.1511,-2.1512,-2.1509,-2.1509,-2.1506,-2.1506,-2.1505,-2.1501,-2.15,-2.1496,-2.1497,-2.1504,-2.1492,-2.1492,-2.1494,-2.1508,-2.1512,-2.1513,-2.15,-2.1501,-2.1501,-2.1509,0,-2.154,-2.154,-2.1533,-2.1535,-2.1534,-2.1525,-2.1526,-2.1522,-2.1518,-2.1517,-2.1513,-2.1512,-2.1507,-2.1506,-2.1507,-2.1503,-2.1506,-2.1502,-2.1501,-2.1501,-2.1502,-2.1514,-2.1518,-2.1526,-2.1509,-2.151,-2.151,0,-2.1553,-2.1549,-2.1551,-2.1543,-2.1543,-2.1543,-2.154,-2.1538,-2.1534,-2.1531,-2.1528,-2.1523,-2.1523,-2.1518,-2.1518,-2.1515,-2.1514,-2.1512,-2.1512,-2.1512,-2.1506,-2.1515,-2.1528,-2.1529,-2.1511,-2.1511,-2.1511,0,-2.1567,-2.1563,-2.1563,-2.1561,-2.1552,-2.1553,-2.1549,-2.1544,-2.1542,-2.1539,-2.1538,-2.1535,-2.1534,-2.1532,-2.1526,-2.1523,-2.1527,-2.1521,-2.1524,-2.1524,-2.1526,-2.1526,-2.154,-2.1525,-2.1525,-2.1525,-2.1525,0,-2.158,-2.1581,-2.1569,-2.1569,-2.1571,-2.1562,-2.1563,-2.1559,-2.1554,-2.1554,-2.1546,-2.1546,-2.1538,-2.1536,-2.1532,-2.1532,-2.1532,-2.1529,-2.1528,-2.153,-2.153,-2.153,-2.1529,-2.1526,-2.1526,-2.1525,-2.1525,0,-2.1597,-2.1589,-2.1588,-2.1579,-2.1577,-2.1578,-2.1571,-2.157,-2.1565,-2.1564,-2.1564,-2.1556,-2.1554,-2.1547,-2.1544,-2.154,-2.1542,-2.154,-2.1544,-2.1543,-2.1547,-2.1546,-2.156,-2.1562,-2.1546,-2.1547,-2.1547,0,-2.1606,-2.1606,-2.1597,-2.1595,-2.1591,-2.1589,-2.1587,-2.1578,-2.1576,-2.157,-2.1571,-2.1568,-2.1565,-2.1562,-2.1556,-2.1553,-2.1551,-2.1556,-2.155,-2.1552,-2.1551,-2.1551,-2.1551,-2.1557,-2.1557,-2.1558,-2.1558,0,-2.1622,-2.1618,-2.1615,-2.1609,-2.1607,-2.1602,-2.1598,-2.1597,-2.1587,-2.1586,-2.1583,-2.158,-2.1576,-2.1573,-2.1569,-2.1565,-2.156,-2.1559,-2.156,-2.1562,-2.1564,-2.1563,-2.1547,-2.1559,-2.1559,-2.1559,-2.1559,-2.1559,-2.1636,-2.1635,-2.1628,-2.1624,-2.1619,-2.1615,-2.1614,-2.1608,-2.1605,-2.16,-2.1595,-2.1592,-2.1586,-2.158,-2.1577,-2.1575,-2.1572,-2.1573,-2.1574,-2.1574,-2.1575,-2.1564,-2.1574,-2.1574,-2.1574,-2.1574,-2.1574,0,-2.1652,-2.1646,-2.1643,-2.1636,-2.1632,-2.1626,-2.162,-2.1618,-2.1616,-2.161,-2.1607,-2.1603,-2.16,-2.1593,-2.1589,-2.1589,-2.1586,-2.1588,-2.1588,-2.1587,-2.1578,-2.1577,-2.159,-2.159,-2.159,-2.159,-2.159,-2.159,-2.166,-2.1659,-2.1653,-2.1649,-2.1644,-2.164,-2.1637,-2.1633,-2.1628,-2.1624,-2.1621,-2.1616,-2.161,-2.1605,-2.1601,-2.1599,-2.1598,-2.1601,-2.1599,-2.159,-2.1588,-2.1587,-2.1586,-2.1601,-2.1601,-2.1608,-2.1608,-2.1608]},{"header":{"parameterUnit":"m.s-1","parameterCategory":1,"la1":30.2991,"la2":30.254,"lo1":-89.0895,"lo2":-89.0444,"dy":0.0017,"dx":0.0017,"nx":28,"ny":28,"refTime":"2023-10-06T09:00:00:Z","depth":0,"parameterNumber":3,"parameterNumberName":"V-component_of_WINDS"},"data":[0,0,0,0,0,0,0,0,0,0,0,0,0,0,0,0,0,0,0,0,0,0,0,0,0,0,0,0,0,0,0,0,0,0,0,0,0,0,0,0,0,0,0,0,0,0,0,0,0,0,0,0,0,0,0,0,0,0,-5.41,-5.4101,0,-5.4219,-5.422,-5.4222,-5.416,-5.4157,-5.4154,-5.4151,-5.427,-5.4276,-5.4282,0,0,0,0,0,0,0,0,0,0,0,0,0,-5.3813,-5.3819,-5.41,-5.4102,-5.4103,-5.4219,-5.4221,-5.4222,-5.4161,-5.4157,-5.4153,-5.415,-5.4268,-5.4275,-5.4282,0,0,0,0,0,0,0,0,0,0,0,0,0,-5.3935,-5.382,-5.41,-5.4087,-5.4087,-5.4219,-5.4221,-5.4223,-5.4162,-5.4157,-5.4152,-5.4148,-5.4266,-5.4274,-5.4283,-5.4434,0,0,-5.4311,-5.4315,0,0,0,0,0,0,0,0,-5.3928,-5.3946,-5.4087,-5.4088,-5.4088,-5.417,-5.4163,-5.4293,-5.4163,-5.4133,-5.4151,-5.4146,-5.424,-5.4251,-5.4284,-5.444,-5.4445,-5.4312,-5.4318,-5.4322,-5.4324,0,0,0,0,0,0,0,-5.392,-5.394,-5.4147,-5.4089,-5.409,-5.4072,-5.4084,-5.4187,-5.4212,-5.4135,-5.4131,-5.4146,-5.424,-5.4275,-5.4286,-5.4447,-5.4312,-5.432,-5.4326,-5.4329,-5.4725,-5.473,0,0,0,0,0,0,-5.3913,-5.3934,-5.4143,-5.4151,-5.3995,-5.4081,-5.4095,-5.4148,-5.421,-5.4215,-5.415,-5.4143,-5.4262,-5.4276,-5.429,-5.4466,-5.4322,-5.433,-5.4335,-5.472,-5.4726,-5.4732,0,0,0,0,0,0,-5.3907,-5.3932,-5.4138,-5.4041,-5.4066,-5.4091,-5.4152,-5.4153,-5.4189,-5.4222,-5.4225,-5.4182,-5.4259,-5.4277,-5.4398,-5.4469,-5.4334,-5.4343,-5.4714,-5.4722,-5.4729,-5.4822,0,0,0,0,0,0,-5.3899,-5.3931,-5.399,-5.4043,-5.4072,-5.4246,-5.4157,-5.4159,-5.4205,-5.4197,-5.4253,-5.4258,-5.4256,-5.4384,-5.4407,-5.4479,-5.435,-5.4708,-5.4718,-5.4726,-5.4812,-5.4831,-5.4848,0,0,0,0,0,-5.3889,-5.4013,-5.3994,-5.4019,-5.4147,-5.4251,-5.4267,-5.4264,-5.4211,-5.4269,-5.429,-5.4256,-5.4458,-5.4397,-5.4422,-5.4498,-5.4703,-5.4715,-5.4726,-5.4804,-5.4828,-5.4847,0,0,0,0,0,0,-5.3968,-5.4019,-5.3999,-5.4144,-5.4193,-5.424,-5.4314,-5.429,-5.4355,-5.4344,-5.4337,-5.435,-5.4474,-5.4498,-5.4429,-5.4644,-5.4572,-5.4589,-5.4623,-5.4646,-5.4663,-5.4653,-5.4357,0,0,0,0,0,-5.4003,-5.4084,-5.4124,-5.4248,-5.4273,-5.429,-5.4335,-5.4328,-5.4379,-5.4399,-5.4428,-5.4477,-5.4551,-5.46,-5.4671,-5.4816,-5.4824,-5.488,-5.4898,-5.4912,-5.4926,-5.4998,-5.5022,-5.4769,-5.4769,-5.4768,0,0,-5.4074,-5.4112,-5.4165,-5.4264,-5.4302,-5.4383,-5.4308,-5.4399,-5.4458,-5.4413,-5.4527,-5.455,-5.4603,-5.4735,-5.4795,-5.4759,-5.4998,-5.4927,-5.4938,-5.4944,-5.5012,-5.5036,-5.5057,-5.4776,-5.4775,-5.4774,0,0,-5.4246,-5.4285,-5.4389,-5.4427,-5.4485,-5.4494,-5.4519,-5.4569,-5.4581,-5.4696,-5.4661,-5.4731,-5.4861,-5.4898,-5.4935,-5.5114,-5.5083,-5.5138,-5.5229,-5.53,-5.532,-5.5337,-5.5396,-5.5418,-5.5152,-5.5152,-5.5152,0,-5.4327,-5.4451,-5.4446,-5.4538,-5.458,-5.4542,-5.4644,-5.4682,-5.4759,-5.4788,-5.4748,-5.4905,-5.4939,-5.5076,-5.5119,-5.5152,-5.5176,-5.513,-5.5318,-5.5335,-5.5351,-5.5407,-5.543,-5.5158,-5.5157,-5.5156,-5.5156,0,-5.4545,-5.4631,-5.4708,-5.4781,-5.4833,-5.493,-5.4937,-5.4989,-5.4976,-5.4988,-5.5102,-5.5141,-5.5216,-5.5248,-5.5238,-5.5382,-5.5358,-5.5318,-5.5245,-5.5381,-5.5433,-5.5455,-5.5166,-5.5164,-5.5162,-5.5161,0,0,-5.4772,-5.4838,-5.4866,-5.4896,-5.4954,-5.5019,-5.5112,-5.5185,-5.5227,-5.5281,-5.5355,-5.5463,-5.5425,-5.5466,-5.5459,-5.5521,-5.5654,-5.5473,-5.5474,-5.5501,-5.5808,-5.5835,-5.586,-5.5635,-5.5639,-5.5642,-5.5802,0,-5.4943,-5.5107,-5.5102,-5.5254,-5.5329,-5.5291,-5.5371,-5.5414,-5.5426,-5.549,-5.5504,-5.5578,-5.5525,-5.5549,-5.5609,-5.5625,-5.5715,-5.5614,-5.57,-5.5703,-5.5684,-5.5889,-5.5918,-5.6068,-5.5823,-5.5827,-5.5829,0,-5.5167,-5.5225,-5.5383,-5.5423,-5.5455,-5.5528,-5.559,-5.5654,-5.5699,-5.5703,-5.5747,-5.5728,-5.5818,-5.5744,-5.5866,-5.5797,-5.5832,-5.5845,-5.585,-5.5855,-5.5772,-5.5895,-5.6116,-5.6136,-5.5862,-5.586,-5.5857,0,-5.5309,-5.5428,-5.5536,-5.5564,-5.5616,-5.5666,-5.569,-5.5731,-5.5772,-5.5827,-5.5853,-5.5918,-5.5953,-5.6002,-5.5999,-5.5947,-5.612,-5.6048,-5.6123,-5.6123,-5.6159,-5.6156,-5.6385,-5.6189,-5.6188,-5.6188,-5.6187,0,-5.5499,-5.5596,-5.56,-5.5666,-5.5772,-5.5764,-5.5868,-5.5886,-5.5922,-5.5988,-5.596,-5.6023,-5.6018,-5.608,-5.6079,-5.6176,-5.6194,-5.6197,-5.6194,-5.6197,-5.6196,-5.6217,-5.6205,-5.6194,-5.6192,-5.6191,-5.619,0,-5.5677,-5.5684,-5.5798,-5.5836,-5.5848,-5.5923,-5.5954,-5.6015,-5.6024,-5.6108,-5.6127,-5.6141,-5.6212,-5.6215,-5.6298,-5.6297,-5.6413,-5.6402,-5.6398,-5.6394,-5.6467,-5.6459,-5.6714,-5.6745,-5.6533,-5.6535,-5.6537,0,-5.5796,-5.5869,-5.5914,-5.5956,-5.5982,-5.6051,-5.6092,-5.6086,-5.613,-5.6184,-5.6237,-5.6305,-5.6359,-5.6474,-5.649,-5.6551,-5.6538,-5.6623,-5.6547,-5.6545,-5.6533,-5.6527,-5.6532,-5.6637,-5.664,-5.6642,-5.6643,0,-5.6005,-5.6003,-5.6065,-5.6126,-5.6176,-5.6224,-5.6268,-5.6304,-5.6302,-5.6352,-5.6424,-5.6466,-5.6548,-5.6614,-5.6673,-5.6694,-5.6667,-5.6667,-5.6687,-5.6688,-5.6681,-5.6681,-5.6434,-5.6661,-5.6659,-5.6658,-5.6657,-5.6656,-5.6154,-5.6214,-5.6253,-5.6321,-5.6353,-5.6394,-5.6451,-5.6465,-5.6525,-5.6591,-5.6584,-5.6662,-5.6699,-5.6775,-5.6801,-5.686,-5.683,-5.6861,-5.6867,-5.6874,-5.6879,-5.6674,-5.6871,-5.6871,-5.687,-5.687,-5.687,0,-5.6357,-5.6379,-5.6441,-5.6502,-5.6554,-5.6524,-5.657,-5.6615,-5.6684,-5.6722,-5.6774,-5.6853,-5.6916,-5.6936,-5.6996,-5.7039,-5.7027,-5.7054,-5.7049,-5.7053,-5.6905,-5.6879,-5.7062,-5.7062,-5.7062,-5.7062,-5.7062,-5.7062,-5.6469,-5.6567,-5.6569,-5.6682,-5.6703,-5.6779,-5.6807,-5.6842,-5.6872,-5.6961,-5.7013,-5.7025,-5.7053,-5.7114,-5.7169,-5.7173,-5.7194,-5.7225,-5.7223,-5.7084,-5.7064,-5.7046,-5.7022,-5.7231,-5.7231,-5.7366,-5.7367,-5.7368]}]]